Home   Weather   Buxtehude   Past weeks

Flag for Germany Past Weather in Buxtehude, Lower Saxony, Germany — Yesterday and Last 2 Weeks

Now
37 °F

Passing clouds.


Feels Like: 35 °F
Forecast: 23 / 29 °F
Wind: 3 mph from Southeast

Location: Hamburg-Fuhlsbuettel

Current Time: Jan 21, 2017 at 10:52:21 pm

Latest Report: Jan 21, 2017 at 10:20 pm


Visibility: N/A

Pressure: 30.45 "Hg

Humidity: 93%

Dew Point: 36 °F

Location of BuxtehudeLocation

Past Weather in Buxtehude — Graph

°F

Buxtehude Temperature Yesterday

Maximum temperature yesterday: 36 °F (at 11:20 am)
Minimum temperature yesterday: 32 °F (at 12:20 am)
Average temperature yesterday: 34 °F

High & Low Weather Summary for the Past Weeks

 TemperatureHumidityPressure
High45 °F (Jan 11, 4:20 pm)100% (Jan 7, 11:50 am)30.72 "Hg (Jan 7, 11:50 am)
Low18 °F (Jan 16, 4:50 am)65% (Jan 19, 1:50 pm)29.06 "Hg (Jan 13, 4:50 am)
Average33 °F90%30.14 "Hg
* Reported Jan 6 9:20 pm — Jan 21 9:50 pm, Buxtehude, Weather by CustomWeather, © 2017

Note: Actual official high and low records may vary slightly from our data, if they occured in-between our weather recording intervals... More about our weather records

Advertising

Buxtehude Weather History for the Previous 24 Hours

Scroll right to see more
 ConditionsComfort  
Time TempWeatherWind HumidityBarometerVisibility
9:50 pm
Sat, Jan 21
37 °FPassing clouds.2 mph93%30.45 "Hg5 mi
9:20 pm37 °FPassing clouds.No wind93%30.45 "Hg4 mi
8:50 pm36 °FPassing clouds.No wind93%30.45 "Hg4 mi
8:20 pm37 °FPassing clouds.No wind93%30.45 "Hg4 mi
7:50 pm37 °FPassing clouds.1 mph93%30.45 "Hg4 mi
7:20 pm37 °FPassing clouds.3 mph93%30.45 "Hg4 mi
6:50 pm37 °FPassing clouds.2 mph93%30.45 "Hg4 mi
6:20 pm37 °FPassing clouds.2 mph93%30.45 "Hg4 mi
5:50 pm37 °FPassing clouds.2 mph93%30.45 "Hg4 mi
5:20 pm37 °FPassing clouds.2 mph93%30.45 "Hg5 mi
4:50 pm37 °FPassing clouds.3 mph93%30.45 "Hg5 mi
4:20 pm39 °FPartly sunny.3 mph87%30.45 "Hg5 mi
3:50 pm39 °FPartly sunny.2 mph87%30.45 "Hg5 mi
3:20 pm39 °FPartly sunny.2 mph87%30.45 "Hg5 mi
2:50 pm39 °FPartly sunny.2 mph87%30.45 "Hg5 mi
2:20 pm39 °FPartly sunny.1 mph87%30.45 "Hg5 mi
1:50 pm39 °FPartly sunny.3 mph87%30.45 "Hg5 mi
1:20 pm37 °FPartly sunny.6 mph93%30.48 "Hg4 mi
12:50 pm37 °FPartly sunny.7 mph93%30.48 "Hg4 mi
12:20 pm37 °FPartly sunny.6 mph93%30.48 "Hg5 mi
11:50 am37 °FPartly sunny.5 mph93%30.48 "Hg6 mi
11:20 am37 °FPartly sunny.3 mph93%30.48 "Hg6 mi
10:50 am37 °FPartly sunny.No wind100%30.48 "Hg6 mi
10:20 am37 °FPartly sunny.No wind93%30.51 "Hg6 mi
9:50 am37 °FPartly sunny.No wind93%30.51 "Hg6 mi
9:20 am36 °FPartly sunny.No wind100%30.48 "HgN/A
8:50 am36 °FPartly sunny.No wind100%30.48 "HgN/A
8:20 am36 °FPassing clouds.No wind100%30.48 "HgN/A
7:50 am36 °FPassing clouds.1 mph100%30.48 "HgN/A
7:20 am36 °FPassing clouds.3 mph100%30.48 "HgN/A
6:50 am36 °FPassing clouds.3 mph100%30.48 "Hg4 mi
6:20 am34 °FFog.3 mph100%30.48 "Hg2 mi
5:50 am34 °FFog.No wind100%30.48 "Hg2 mi
5:20 am34 °FFog.No wind100%30.48 "Hg1 mi
4:50 am34 °FFog.No wind100%30.48 "Hg1 mi
4:20 am34 °FFog.No wind100%30.48 "Hg1 mi
3:50 am34 °FFog.No wind100%30.51 "Hg1 mi
3:20 am34 °FFog.2 mph100%30.51 "Hg1 mi
2:50 am34 °FFog.3 mph100%30.51 "Hg1 mi
2:20 am32 °FIce fog.No wind100%30.51 "Hg1 mi
1:50 am32 °FIce fog.No wind100%30.51 "Hg1 mi
1:20 am34 °FFog.No wind100%30.51 "Hg1 mi
12:50 am34 °FFog.2 mph100%30.51 "Hg1 mi
12:20 am34 °FFog.3 mph100%30.51 "Hg1 mi
11:50 pm
Fri, Jan 20
34 °FFog.5 mph100%30.54 "Hg1 mi
11:20 pm34 °FDrizzle. Fog.No wind100%30.54 "Hg1 mi
10:50 pm34 °FDrizzle. Fog.No wind100%30.54 "Hg1 mi
10:20 pm34 °FDrizzle. Fog.No wind100%30.54 "Hg1 mi
Weather by CustomWeather, © 2017

See weather overviewHow to use our weather pages